Weather in Petrovskoye

Russia / Yaroslavl Oblast     57°00′49″N   39°15′48″E
temp.,
°C
wind,
m/s
gust,
m/s
humid.,
%
clouds,
%
prec.,
mm/h
press.,
hPa
HPBL,
m
6 march, sat
sat600:00−13w229230 0.0 101321
03:00−13w349342 0.0 101546
06:00−14wnw339767 0.0 101444
09:00−12wnw259444 0.0 1015183
12:00−8nw248697 0.1 1016594
15:00−7wnw458099 0.3 1014958
18:00−11w238783 0.1 101321
21:00−13sw339142 0.1 101326
7 march, sun
sun700:00−14ssw45910 0.0 101088
03:00−11s5118834 0.0 1006271
06:00−9ssw71491100 0.1 1001682
09:00−7ssw81493100 1.2 996867
12:00−4ssw81393100 1.1 9921061
15:00−3w101492100 3.2 9901135
18:00−7wsw5127599 0.3 991433
21:00−10wsw5118658 0.3 992273
8 march, mon
mon800:00−11w5128466 0.1 992284
03:00−13w5118752 0.1 992222
06:00−13w51189100 0.0 993273
09:00−12wnw5992100 0.0 996367
12:00−8nnw5790100 0.3 999772
15:00−8nnw6986100 0.5 1003875
18:00−11nw41090100 0.1 1006431
21:00−14nw4109499 0.1 1009278
9 march, tue
tue900:00−17nw369884 0.0 101292
03:00−20nnw349970 0.1 101449
06:00−22nw34980 0.0 101565
09:00−20nnw36951 0.0 1017251
12:00−17nnw358568 0.0 1018493
15:00−15nnw468584 0.0 1019610
18:00−19nnw349492 0.0 102067
21:00−24nnw339654 0.0 102232
10 march, wed
wed1000:00−26nnw22980 0.0 102319
03:00−27nnw111000 0.0 102419
06:00−28wnw111000 0.0 102419
09:00−22ene12930 0.0 1025100
12:00−17ese22820 0.0 1025306
15:00−15e22780 0.0 1025396
18:00−19e229163 0.0 102520
21:00−21ese229182 0.0 102620